EW7186 Weather Reports


Display with metric or nautical units.
time (UTC)temp
F
wind
direction
speed
MPH
gust
MPH
rain 1hr
in
rain 24hr
in
rain mn
in
humidity
%
barometer
mb
20260903200104 93 0 1.0 6.0 0.00 0.00 0.00 57 1015.8
20260903194606 92 78 1.0 5.0 0.00 0.00 0.00 57 1015.8
20260903193118 92 72 6.0 8.0 0.00 0.00 0.00 63 1016.0
20260903191604 92 64 4.0 5.0 0.00 0.00 0.00 61 1016.1
20260903190104 91 60 4.0 5.0 0.00 0.00 0.00 62 1016.1
20260903184608 91 0 1.0 5.0 0.00 0.00 0.00 59 1016.3
20260903183106 91 9 1.0 4.0 0.00 0.00 0.00 59 1016.6
20260903181608 90 46 3.0 4.0 0.00 0.00 0.00 63 1016.7
20260903180109 89 61 5.0 7.0 0.00 0.00 0.00 66 1016.7
20260903174603 89 57 5.0 7.0 0.00 0.00 0.00 65 1016.8
20260903173106 89 50 3.0 5.0 0.00 0.00 0.00 66 1017.0
20260903171603 89 60 5.0 6.0 0.00 0.00 0.00 68 1017.2
20260903170224 88 58 4.0 5.0 0.00 0.00 0.00 66 1017.3
20260903164605 88 48 3.0 5.0 0.00 0.00 0.00 66 1017.4
20260903163104 88 63 5.0 5.0 0.00 0.00 0.00 69 1017.6
20260903161622 88 65 2.0 3.0 0.00 0.00 0.00 66 1017.6
20260903160105 87 68 2.0 3.0 0.00 0.00 0.00 64 1017.8
20260903154604 87 60 3.0 4.0 0.00 0.00 0.00 65 1018.1
20260903153106 87 58 2.0 3.0 0.00 0.00 0.00 65 1018.1
20260903151604 87 303 1.0 3.0 0.00 0.00 0.00 67 1018.0
20260903150104 86 355 1.0 3.0 0.00 0.00 0.00 66 1018.1
20260903144607 86 14 1.0 4.0 0.00 0.00 0.00 68 1018.0
20260903143106 85 325 2.0 3.0 0.00 0.00 0.00 68 1017.8
20260903141602 85 336 2.0 5.0 0.00 0.00 0.00 71 1018.0
20260903134601 83 234 0.0 1.0 0.00 0.00 0.00 76 1018.0
20260903133101 82 0 0.0 4.0 0.00 0.00 0.00 78 1018.0
20260903131606 82 0 0.0 0.0 0.00 0.00 0.00 79 1018.1
20260903130106 81 0 0.0 1.0 0.00 0.00 0.00 82 1018.1
20260903124628 80 0 0.0 0.0 0.00 0.00 0.00 85 1018.1
20260903123106 79 0 0.0 1.0 0.00 0.00 0.00 86 1018.1
20260903121603 78 0 0.0 0.0 0.00 0.00 0.00 87 1018.2
20260903120109 77 0 0.0 0.0 0.00 0.00 0.00 88 1018.0
20260903114615 77 0 0.0 0.0 0.00 0.00 0.00 89 1017.9
20260903113110 76 0 0.0 0.0 0.00 0.00 0.00 90 1017.8
20260903111602 76 0 0.0 0.0 0.00 0.00 0.00 89 1017.6
20260903110106 76 0 0.0 0.0 0.00 0.00 0.00 88 1017.5
20260903104606 76 0 0.0 0.0 0.00 0.00 0.00 88 1017.5
20260903103104 76 0 0.0 0.0 0.00 0.00 0.00 87 1017.3
20260903101603 76 0 0.0 0.0 0.00 0.00 0.00 86 1017.2
20260903100106 76 0 0.0 0.0 0.00 0.00 0.00 87 1017.1
20260903094607 77 0 0.0 0.0 0.00 0.00 0.00 86 1017.1
20260903093110 77 0 0.0 0.0 0.00 0.00 0.00 86 1017.0
20260903091601 77 0 0.0 0.0 0.00 0.00 0.00 86 1017.0
20260903090101 77 0 0.0 0.0 0.00 0.00 0.00 86 1017.0
20260903084619 77 0 0.0 0.0 0.00 0.00 0.00 86 1016.9
20260903083105 77 0 0.0 0.0 0.00 0.00 0.00 86 1016.8
20260903081602 78 0 0.0 0.0 0.00 0.00 0.00 84 1016.7
20260903074608 79 0 0.0 0.0 0.00 0.00 0.00 83 1016.3
20260903073108 79 0 0.0 0.0 0.00 0.00 0.00 83 1016.4
20260903071607 79 0 0.0 0.0 0.00 0.00 0.00 83 1016.4
20260903070104 79 0 0.0 0.0 0.00 0.00 0.00 82 1016.3
20260903064603 80 0 0.0 0.0 0.00 0.00 0.00 82 1016.4
20260903063103 80 0 0.0 1.0 0.00 0.00 0.00 82 1016.2
20260903061602 81 0 0.0 3.0 0.00 0.00 0.00 81 1016.2
20260903060100 81 227 1.0 4.0 0.00 0.00 0.00 81 1016.2
20260903054557 81 221 1.0 3.0 0.00 0.00 0.00 80 1016.4
20260903053107 82 260 1.0 3.0 0.00 0.00 0.00 80 1016.5
20260903051614 82 230 1.0 3.0 0.00 0.00 0.00 79 1016.8
20260903050111 82 252 0.0 3.0 0.00 0.00 0.00 78 1016.9
20260903044606 82 230 0.0 1.0 0.00 0.00 0.00 78 1017.0
20260903043104 83 0 0.0 1.0 0.00 0.00 0.00 79 1016.8
20260903041632 83 0 0.0 0.0 0.00 0.00 0.00 78 1016.8
20260903040114 84 0 0.0 0.0 0.00 0.00 0.00 78 1016.9
20260903034601 84 0 0.0 0.0 0.00 0.00 0.00 75 1017.0
20260903033100 85 0 0.0 0.0 0.00 0.00 0.00 74 1017.2
20260903031603 85 0 0.0 0.0 0.00 0.00 0.00 74 1017.2
20260903030103 86 0 0.0 0.0 0.00 0.00 0.00 73 1017.3
20260903024603 86 0 0.0 0.0 0.00 0.00 0.00 72 1017.3
20260903023057 85 0 0.0 0.0 0.00 0.00 0.00 75 1017.2
20260903021604 85 0 0.0 0.0 0.00 0.00 0.00 79 1017.3
20260903020105 85 0 0.0 0.0 0.00 0.00 0.00 81 1017.4
20260903014612 86 0 0.0 0.0 0.00 0.00 0.00 76 1017.1
20260903013106 86 0 0.0 0.0 0.00 0.00 0.00 75 1017.0
20260903011602 87 0 0.0 0.0 0.00 0.00 0.00 73 1016.7
20260903010104 87 0 0.0 0.0 0.00 0.00 0.00 73 1016.5
20260903004608 88 0 0.0 0.0 0.00 0.00 0.00 70 1016.3
20260903003103 88 0 0.0 0.0 0.00 0.00 0.00 68 1016.1
20260903001608 89 0 0.0 0.0 0.00 0.00 0.00 67 1016.2
20260902234602 91 0 0.0 0.0 0.00 0.00 0.00 62 1016.1
20260902233104 91 0 0.0 0.0 0.00 0.00 0.00 61 1016.2
20260902231602 92 0 0.0 0.0 0.00 0.00 0.00 62 1016.0
20260902230111 93 0 0.0 0.0 0.00 0.00 0.00 57 1016.0
20260902224604 93 0 0.0 0.0 0.00 0.00 0.00 55 1015.9
20260902223120 93 0 0.0 0.0 0.00 0.00 0.00 56 1016.1
20260902221559 93 0 0.0 0.0 0.00 0.00 0.00 59 1016.1
20260902220105 93 0 0.0 0.0 0.00 0.00 0.00 57 1016.2
20260902214609 94 0 0.0 3.0 0.00 0.00 0.00 57 1016.2
20260902213110 94 63 2.0 3.0 0.00 0.00 0.00 54 1016.2
20260902211608 94 49 2.0 3.0 0.00 0.00 0.00 53 1016.3
20260902210106 94 62 3.0 3.0 0.00 0.00 0.00 55 1016.3
20260902204606 94 52 1.0 3.0 0.00 0.00 0.00 51 1016.3
20260902203101 94 54 1.0 2.0 0.00 0.00 0.00 53 1016.4
20260902201558 94 0 0.0 2.0 0.00 0.00 0.00 51 1016.6